Location: Austin
(30.3000°N, 97.7500°W)
Time: 23:36:50
(UTC-06:00)

Cosmos 2173 Rocket - Pass Details

Date: 04 November 2025
Orbit: 942 x 1000 km, 83.0° (Epoch: 15 November)

Event Time Altitude Azimuth Distance (km) Brightness Sun altitude
Rises 18:03:19 0° 181° (S) 3,695 7.3 -5.5°
Reaches altitude 10° 18:05:50 10° 180° (S) 2,744 6.6 -6.0°
Maximum altitude 18:12:08 82° 94° (E) 996 4.0 -7.3°
Drops below altitude 10° 18:18:23 10° 8° (N) 2,720 6.1 -8.6°
Sets 18:20:53 0° 7° (N) 3,662 6.8 -9.2°
